Stations météo

réclame
Mon MeteoGroup
Mühldorf, Allemagne (10875): Température de l'air & dewpoint: 15.06.2018 12:00:00 - 21.06.2018 12:00:00 (CEST)Mühldorf, Allemagne (10875): Température de l'air 5cm & Température de l'air -5cm: 15.06.2018 12:00:00 - 21.06.2018 12:00:00 (CEST)Mühldorf, Allemagne (10875): Température de l'air -20cm & Température de l'air -100cm: 15.06.2018 12:00:00 - 21.06.2018 12:00:00 (CEST)Mühldorf, Allemagne (10875): Vitesse du vent & gusts: 15.06.2018 12:00:00 - 21.06.2018 12:00:00 (CEST)Mühldorf, Allemagne (10875): Direction du vent: 15.06.2018 12:00:00 - 21.06.2018 12:00:00 (CEST)Mühldorf, Allemagne (10875): reduced air pressure: 15.06.2018 12:00:00 - 21.06.2018 12:00:00 (CEST)Mühldorf, Allemagne (10875): visibility: 15.06.2018 12:00:00 - 21.06.2018 12:00:00 (CEST)Mühldorf, Allemagne (10875): Ensoleillement: 15.06.2018 12:00:00 - 21.06.2018 12:00:00 (CEST)Mühldorf, Allemagne (10875): Quantités de précipitations: 15.06.2018 12:00:00 - 21.06.2018 12:00:00 (CEST)
Date & Time tt [°C] td [°C] tt 5cm [°C] tt -5cm [°C] tt -20cm [°C] tt -100cm [°C] ff [km/h] ff [knt] fx [km/h] fx [knt] dd ppp [hPa] vv [km] sd [min] rr [mm]
21.06.2018 12:00:00 27,3 14,3 31,9 30,6 22,7 17,6 15 8 25 14 W 1012,8 16 58 0,0
21.06.2018 11:00:00 26,5 13,6 32,1 28,6 22,6 17,6 5 3 12 6 S 1013,3 23 60 0,0
21.06.2018 10:00:00 24,9 15,0 29,1 26,1 22,6 17,6 3 1 6 4 NE 1014,1 19 60 0,0
21.06.2018 09:00:00 21,9 14,4 25,0 23,5 22,8 17,6 3 2 5 3 E 1015,2 20 60 0,0
21.06.2018 08:00:00 19,5 12,7 20,7 21,1 23,0 17,6 2 1 5 3 SSE 1015,9 14 60 0,0
21.06.2018 07:00:00 16,3 12,0 17,3 19,2 23,2 17,6 0 0 3 1 N 1016,7 11 60 0,0
21.06.2018 06:00:00 13,4 11,7 12,3 18,4 23,5 17,6 0 0 3 2 N 1017,1 14 7 0,0
21.06.2018 05:00:00 12,3 11,7 10,6 19,0 23,8 17,6 2 1 3 1 NNW 1017,5 7 0 0,0
21.06.2018 04:00:00 13,5 13,4 11,5 19,6 24,0 17,6 0 0 3 2 N 1017,6 4,9 0 0,0
21.06.2018 03:00:00 13,7 13,2 11,9 20,4 24,3 17,6 0 0 5 3 N 1017,9 12 0 0,0
21.06.2018 02:00:00 14,6 14,0 12,3 21,3 24,5 17,6 3 2 4 2 WNW 1018,2 17 0 0,0
21.06.2018 01:00:00 15,3 14,3 13,6 22,2 24,7 17,6 3 1 5 3 W 1018,4 19 0 0,0
21.06.2018 00:00:00 15,4 13,8 13,7 23,4 24,8 17,5 4 2 5 3 W 1018,8 18 0 0,0
20.06.2018 23:00:00 17,2 14,3 15,2 24,7 24,9 17,5 4 2 6 3 W 1018,7 31 0 0,0
20.06.2018 22:00:00 18,0 14,0 15,8 26,6 24,9 17,5 3 2 10 5 NW 1018,3 28 0 0,0
20.06.2018 21:00:00 23,5 13,2 21,8 28,7 24,7 17,5 8 4 11 6 NNE 1017,3 50 47 0,0
20.06.2018 20:00:00 25,9 12,1 27,2 30,7 24,5 17,5 8 4 14 7 NE 1016,9 42 60 0,0
20.06.2018 19:00:00 26,5 11,3 28,4 32,1 24,2 17,5 10 5 16 9 ENE 1017,0 47 60 0,0
20.06.2018 18:00:00 27,2 12,5 31,1 32,8 23,8 17,5 8 4 22 12 ENE 1017,2 36 60 0,0
20.06.2018 17:00:00 27,0 11,2 31,5 32,9 23,4 17,5 10 6 20 11 ENE 1017,8 35 60 0,0
20.06.2018 16:00:00 26,6 12,9 30,6 32,3 23,1 17,5 16 9 28 15 E 1018,3 18 60 0,0
20.06.2018 15:00:00 26,7 12,3 32,4 31,1 22,7 17,5 11 6 22 12 ENE 1018,8 26 30 0,0
20.06.2018 14:00:00 25,5 12,3 29,1 30,4 22,4 17,5 11 6 21 11 NE 1019,5 41 7 0,0
20.06.2018 13:00:00 26,4 13,4 32,2 29,9 22,1 17,5 9 5 21 11 ESE 1019,9 38 48 0,0
20.06.2018 12:00:00 24,1 11,6 26,5 28,5 21,9 17,5 11 6 24 13 E 1020,7 26 43 0,0
20.06.2018 11:00:00 24,7 14,9 29,0 27,1 21,8 17,5 9 5 22 12 E 1020,8 27 60 0,0
20.06.2018 10:00:00 23,2 14,5 26,6 25,2 21,8 17,5 11 6 21 11 ESE 1021,5 9 60 0,0
20.06.2018 09:00:00 21,3 13,8 24,5 23,0 21,9 17,5 6 4 10 5 ESE 1022,1 8 60 0,0
20.06.2018 08:00:00 19,4 14,0 21,5 20,6 22,0 17,5 5 3 8 5 E 1022,5 13 53 0,0
20.06.2018 07:00:00 15,9 14,5 15,8 19,2 22,2 17,5 2 1 4 2 ESE 1023,2 11 0 0,0
20.06.2018 06:00:00 15,2 14,3 14,4 19,3 22,3 17,5 3 2 4 2 ENE 1023,4 15 0 0,0
20.06.2018 05:00:00 15,4 14,4 14,4 20,0 22,5 17,5 4 2 6 3 W 1023,3 11 0 0,0
20.06.2018 04:00:00 17,4 15,7 16,9 20,7 22,6 17,5 3 2 8 4 E 1022,9 21 0 0,0
20.06.2018 03:00:00 17,7 16,1 17,5 21,0 22,8 17,5 0 0 4 2 N 1023,1 24 0 0,0
20.06.2018 02:00:00 17,8 16,0 17,5 21,4 22,9 17,5 2 1 8 4 W 1023,4 23 0 0,0
20.06.2018 01:00:00 17,7 16,2 17,6 21,8 23,0 17,5 0 0 4 2 N 1023,5 24 0 0,0
20.06.2018 00:00:00 17,9 16,4 17,8 22,3 23,1 17,5 2 1 5 3 NW 1023,6 17 0 0,0
19.06.2018 23:00:00 18,0 16,0 17,9 22,9 23,1 17,5 2 1 4 2 E 1023,5 21 0 0,0
19.06.2018 22:00:00 18,1 15,1 17,3 23,9 23,1 17,5 0 0 4 2 N 1023,4 33 0 0,0
19.06.2018 21:00:00 20,6 15,5 18,7 25,6 23,0 17,5 2 1 7 4 NW 1022,6 28 41 0,0
19.06.2018 20:00:00 22,8 13,4 22,9 26,9 22,8 17,5 5 3 13 7 NW 1022,2 53 13 0,0
19.06.2018 19:00:00 23,2 12,9 24,4 27,9 22,6 17,5 7 4 12 6 WNW 1022,2 41 5 0,0
19.06.2018 18:00:00 23,3 12,6 26,1 28,4 22,4 17,5 8 4 13 7 NNW 1022,3 52 16 0,0
19.06.2018 17:00:00 22,8 13,3 24,5 28,5 22,1 17,5 9 5 20 11 WNW 1022,8 39 4 0,0
19.06.2018 16:00:00 22,8 12,4 26,3 28,1 21,9 17,5 14 7 22 12 NW 1023,1 26 5 0,0
19.06.2018 15:00:00 22,5 13,4 25,7 26,8 21,6 17,5 11 6 21 12 W 1023,5 23 0 0,0
19.06.2018 14:00:00 21,6 12,1 23,3 26,6 21,4 17,5 11 6 18 10 WNW 1023,9 32 1 0,0
19.06.2018 13:00:00 21,8 11,7 24,7 26,6 21,2 17,5 5 3 24 13 WNW 1023,9 34 8 0,0
19.06.2018 12:00:00 21,4 11,1 24,3 26,0 21,0 17,5 14 8 24 13 WNW 1024,0 18 32 0,0
19.06.2018 11:00:00 20,6 11,2 23,4 24,2 21,0 17,5 11 6 19 10 WNW 1024,4 23 34 0,0
19.06.2018 10:00:00 19,8 12,6 23,8 21,5 21,1 17,5 10 5 16 8 W 1024,5 11 41 0,0
19.06.2018 09:00:00 17,4 12,7 18,8 19,2 21,3 17,5 8 5 11 6 W 1024,9 23 4 0,0
19.06.2018 08:00:00 15,9 13,6 17,4 17,7 21,5 17,5 6 4 13 7 W 1024,6 14 2 0,0
19.06.2018 07:00:00 13,7 12,5 14,2 16,8 21,7 17,5 6 3 8 4 WNW 1024,6 13 0 0,0
19.06.2018 06:00:00 11,9 11,6 12,1 16,3 22,0 17,5 3 2 5 3 W 1024,8 8 0 0,0
19.06.2018 05:00:00 10,7 10,2 9,3 16,6 22,2 17,5 4 2 4 2 NW 1024,5 10 0 0,0
19.06.2018 04:00:00 11,6 11,0 9,9 17,3 22,5 17,5 2 1 5 3 W 1024,0 11 0 0,0
19.06.2018 03:00:00 12,3 12,2 11,7 17,6 22,7 17,5 0 0 5 3 N 1023,8 13 0 0,0
19.06.2018 02:00:00 11,8 11,1 10,5 18,3 23,0 17,5 3 2 5 3 W 1023,8 21 0 0,0
19.06.2018 01:00:00 12,4 11,6 10,5 19,3 23,2 17,5 3 2 4 2 NW 1023,7 17 0 0,0
19.06.2018 00:00:00 13,4 12,3 11,5 20,4 23,3 17,5 3 1 5 3 N 1023,6 22 0 0,0
18.06.2018 23:00:00 14,5 13,5 11,8 21,7 23,4 17,5 5 3 5 3 WNW 1023,1 17 0 0,0
18.06.2018 22:00:00 15,8 13,5 13,5 23,4 23,4 17,5 4 2 5 3 W 1022,4 19 0 0,0
18.06.2018 21:00:00 19,4 13,2 17,1 25,4 23,3 17,5 3 1 11 6 NNW 1021,3 40 39 0,0
18.06.2018 20:00:00 21,4 11,4 20,8 27,4 23,1 17,5 10 6 24 13 WNW 1020,7 45 54 0,0
18.06.2018 19:00:00 22,6 10,3 24,0 29,0 22,9 17,5 14 7 26 14 WNW 1020,3 29 60 0,0
18.06.2018 18:00:00 23,1 10,9 25,5 29,6 22,6 17,5 18 10 24 13 WNW 1020,1 34 48 0,0
18.06.2018 17:00:00 22,1 12,2 24,8 29,2 22,2 17,5 14 7 28 15 NW 1020,5 43 19 0,0
18.06.2018 16:00:00 21,6 11,2 24,6 29,9 21,9 17,5 12 7 31 17 NW 1020,8 36 37 0,0
18.06.2018 15:00:00 22,2 11,3 27,4 29,3 21,6 17,5 16 9 30 16 WNW 1020,9 17 42 0,0
18.06.2018 14:00:00 21,6 11,4 26,6 28,1 21,4 17,5 14 7 25 14 W 1021,3 20 46 0,0
18.06.2018 13:00:00 20,9 11,1 26,6 25,5 21,3 17,5 13 7 25 14 NW 1021,7 13 48 0,0
18.06.2018 12:00:00 19,7 11,0 23,7 22,9 21,3 17,5 16 9 26 14 W 1021,9 17 31 0,0
18.06.2018 11:00:00 18,8 12,3 21,0 21,3 21,3 17,5 15 8 28 15 W 1022,2 33 1 0,0
18.06.2018 10:00:00 18,0 12,7 19,4 20,6 21,4 17,5 11 6 19 10 W 1021,9 29 2 0,0
18.06.2018 09:00:00 17,7 13,7 19,2 19,8 21,6 17,5 13 7 19 10 W 1021,5 22 6 0,0
18.06.2018 08:00:00 16,4 14,4 18,5 18,6 21,8 17,5 7 4 11 6 W 1021,7 12 4 0,0
18.06.2018 07:00:00 15,3 14,3 15,3 18,3 22,0 17,5 4 2 7 4 WNW 1021,6 12 0 0,0
18.06.2018 06:00:00 15,1 14,5 14,7 18,4 22,2 17,5 5 3 6 4 WNW 1021,3 10 0 0,0
18.06.2018 05:00:00 15,2 14,6 14,6 18,7 22,4 17,5 6 3 9 5 W 1021,0 9 0 0,0
18.06.2018 04:00:00 15,4 14,6 14,9 19,2 22,6 17,5 4 2 8 5 W 1020,9 11 0 0,2
18.06.2018 03:00:00 15,6 14,7 15,3 19,7 22,8 17,5 4 2 7 4 W 1020,7 6 0 0,4
18.06.2018 02:00:00 15,9 14,9 15,6 20,2 22,9 17,5 6 3 11 6 WNW 1020,5 10 0 0,9
18.06.2018 01:00:00 16,3 15,0 15,8 21,0 23,1 17,5 9 5 20 11 W 1020,4 9 0 0,5
18.06.2018 00:00:00 17,5 14,8 16,8 21,8 23,3 17,5 11 6 20 11 WNW 1019,7 23 0 0,0
17.06.2018 23:00:00 17,1 14,1 16,9 22,4 23,3 17,5 5 3 9 5 NW 1018,9 29 0 0,0
17.06.2018 22:00:00 17,0 13,6 14,4 23,6 23,4 17,5 6 3 8 5 NW 1018,3 29 0 0,0
17.06.2018 21:00:00 20,1 13,4 16,9 25,4 23,3 17,5 5 3 21 12 NNW 1016,9 42 7 0,0
17.06.2018 20:00:00 22,2 13,4 22,6 27,3 23,1 17,5 13 7 25 13 NNW 1016,0 30 47 0,0
17.06.2018 19:00:00 23,2 12,6 24,6 28,7 22,9 17,5 22 12 29 16 NW 1015,3 13 27 0,0
17.06.2018 18:00:00 23,4 13,1 24,4 29,9 22,5 17,5 15 8 30 16 NW 1014,8 24 34 0,0
17.06.2018 17:00:00 23,6 13,5 25,0 30,5 22,1 17,5 22 12 32 18 NW 1014,8 14 33 0,0
17.06.2018 16:00:00 23,5 13,0 24,7 31,5 21,6 17,5 26 14 39 21 WNW 1015,2 14 34 0,0
17.06.2018 15:00:00 24,3 13,4 27,6 31,9 21,2 17,5 15 8 28 15 NW 1015,0 16 41 0,0
17.06.2018 14:00:00 24,2 12,6 26,8 30,9 20,8 17,5 22 12 31 17 W 1015,4 21 55 0,0
17.06.2018 13:00:00 24,6 9,9 29,9 28,6 20,5 17,5 12 7 21 11 W 1015,5 19 52 0,0
17.06.2018 12:00:00 23,8 10,9 28,6 26,4 20,3 17,5 12 7 19 11 WNW 1015,8 18 54 0,0
17.06.2018 11:00:00 22,9 11,6 27,2 24,7 20,2 17,5 11 6 19 11 WNW 1016,1 15 58 0,0
17.06.2018 10:00:00 21,3 11,7 25,8 22,0 20,3 17,5 4 2 9 5 WSW 1016,3 19 60 0,0
17.06.2018 09:00:00 18,3 11,0 20,5 19,1 20,4 17,5 3 1 5 3 NNW 1016,8 14 60 0,0
17.06.2018 08:00:00 16,2 10,5 17,0 17,1 20,7 17,5 0 0 4 2 N 1016,8 10 58 0,0
17.06.2018 07:00:00 13,0 10,8 12,2 15,5 20,9 17,5 0 0 5 3 N 1017,1 6 37 0,0
17.06.2018 06:00:00 10,3 9,6 9,3 15,0 21,2 17,5 3 1 4 2 WNW 1017,2 10 1 0,0
17.06.2018 05:00:00 10,6 10,4 8,3 15,5 21,4 17,5 2 1 3 2 E 1016,8 6 0 0,0
17.06.2018 04:00:00 10,5 10,0 9,0 16,2 21,7 17,6 0 0 4 2 N 1016,8 12 0 0,0
17.06.2018 03:00:00 11,0 10,2 9,0 16,9 22,0 17,6 3 2 4 2 NW 1016,9 9 0 0,0
17.06.2018 02:00:00 11,7 10,9 9,2 17,7 22,2 17,6 0 0 4 2 N 1016,7 11 0 0,0
17.06.2018 01:00:00 12,3 11,5 11,0 18,6 22,4 17,6 3 2 6 4 NW 1016,6 14 0 0,0
17.06.2018 00:00:00 13,2 11,8 11,2 19,7 22,5 17,6 3 2 6 3 NNW 1016,2 18 0 0,0
16.06.2018 23:00:00 13,7 11,9 11,7 21,0 22,6 17,6 4 2 5 3 W 1016,1 16 0 0,0
16.06.2018 22:00:00 15,7 12,7 13,5 22,7 22,6 17,6 4 2 5 3 E 1015,2 14 0 0,0
16.06.2018 21:00:00 18,0 13,0 15,3 24,7 22,4 17,6 3 1 4 2 NNW 1014,2 30 0 0,0
16.06.2018 20:00:00 20,6 12,4 18,6 26,9 22,1 17,6 0 0 14 8 N 1013,5 34 14 0,0
16.06.2018 19:00:00 24,3 8,9 26,2 29,0 21,8 17,6 6 3 18 10 ENE 1012,7 40 52 0,0
16.06.2018 18:00:00 24,8 8,4 28,3 30,0 21,4 17,6 9 5 16 9 ENE 1012,7 42 60 0,0
16.06.2018 17:00:00 24,9 9,3 28,6 29,3 21,0 17,6 5 3 20 11 E 1012,9 29 49 0,0
16.06.2018 16:00:00 24,3 7,7 30,6 28,8 20,6 17,6 9 5 19 10 NE 1013,4 21 41 0,0
16.06.2018 15:00:00 23,3 8,3 25,3 29,0 20,1 17,6 9 5 25 13 E 1013,9 36 44 0,0
16.06.2018 14:00:00 23,5 8,2 27,6 27,6 19,8 17,6 11 6 30 16 NNE 1014,2 13 60 0,0
16.06.2018 13:00:00 23,6 9,2 27,6 25,6 19,5 17,6 4 2 19 11 ESE 1014,7 32 59 0,0
16.06.2018 12:00:00 22,2 7,7 26,6 24,0 19,3 17,6 9 5 16 9 SE 1015,4 23 60 0,0
16.06.2018 11:00:00 21,2 10,6 24,1 22,2 19,2 17,6 6 4 14 8 ESE 1015,7 26 60 0,0
16.06.2018 10:00:00 18,9 10,3 21,6 20,3 19,3 17,6 8 5 14 7 SE 1016,1 18 60 0,0
16.06.2018 09:00:00 17,3 10,5 18,7 18,1 19,4 17,6 3 2 9 5 ENE 1016,6 19 60 0,0
16.06.2018 08:00:00 14,1 9,3 15,1 15,9 19,6 17,6 4 2 5 3 ESE 1017,1 12 60 0,0
16.06.2018 07:00:00 11,9 9,0 11,9 14,1 19,9 17,6 4 2 5 3 E 1017,4 9 60 0,0
16.06.2018 06:00:00 8,9 7,8 8,3 13,4 20,1 17,6 0 0 4 2 N 1017,6 12 5 0,0
16.06.2018 05:00:00 9,1 8,5 7,6 13,9 20,4 17,6 0 0 5 3 N 1017,5 10 0 0,0
16.06.2018 04:00:00 9,9 9,6 7,9 14,6 20,6 17,7 3 2 3 2 E 1017,4 11 0 0,0
16.06.2018 03:00:00 10,4 10,1 8,6 15,3 20,9 17,7 0 0 3 2 N 1017,7 11 0 0,0
16.06.2018 02:00:00 11,1 10,6 9,4 16,2 21,1 17,7 2 1 5 3 SW 1017,6 8 0 0,0
16.06.2018 01:00:00 11,7 10,7 11,1 16,8 21,3 17,7 0 0 5 3 N 1017,5 14 0 0,0
16.06.2018 00:00:00 12,5 11,0 11,0 17,8 21,4 17,7 0 0 4 2 N 1017,4 22 0 0,0
15.06.2018 23:00:00 12,6 11,2 10,4 18,7 21,5 17,7 2 1 7 4 WNW 1017,3 20 0 0,0
15.06.2018 22:00:00 14,7 12,4 12,5 20,3 21,5 17,7 3 2 6 3 WNW 1016,5 28 0 0,0
15.06.2018 21:00:00 16,9 12,0 14,2 22,3 21,4 17,7 3 1 6 3 WNW 1015,8 33 29 0,0
15.06.2018 20:00:00 21,1 6,3 20,3 24,0 21,3 17,7 6 3 9 5 W 1015,1 33 60 0,0
15.06.2018 19:00:00 22,0 7,1 23,1 24,8 21,1 17,7 4 2 10 5 SSW 1014,9 56 60 0,0
15.06.2018 18:00:00 21,5 5,4 24,5 25,5 20,8 17,7 7 4 13 7 ENE 1015,1 35 60 0,0
15.06.2018 17:00:00 21,7 6,1 25,0 25,6 20,5 17,7 6 3 17 9 NE 1015,4 40 51 0,0
15.06.2018 16:00:00 20,7 5,4 24,6 26,3 20,1 17,7 6 3 22 12 E 1015,9 32 58 0,0
15.06.2018 15:00:00 20,4 4,8 26,9 26,0 19,7 17,7 7 4 20 11 NNE 1016,2 26 60 0,0
15.06.2018 14:00:00 20,4 6,5 24,9 24,9 19,4 17,7 6 3 20 11 ENE 1016,2 33 50 0,0
15.06.2018 13:00:00 18,7 4,8 21,8 24,7 19,1 17,7 8 4 16 9 N 1016,7 40 53 0,0
15.06.2018 12:00:00 19,8 5,4 24,6 23,1 18,9 17,7 5 3 15 8 S 1016,5 19 60 0,0

tt = Température de l'air
td = dewpoint
tt 5cm = Température de l'air 5cm
tt -5cm = Température de l'air -5cm
tt -20cm = Température de l'air -20cm
tt -100cm = Température de l'air -100cm
ff = Vitesse du vent
fx = gusts
dd = Direction du vent
ppp = reduced air pressure
vv = visibility
sd = Ensoleillement
rr = Quantités de précipitations

stations d'obs. à proximité